Back to catalog

DELTA 1 DEB

AliveSSO
NORAD 21360·DEBRIS·🇺🇸 United States

Launched Jun 12, 1975 from Vandenberg Space Force Base

Loading…

Next Passes (next 24 hours)

TLE

FreshSource: Space-Track

Epoch: Sep 14, 2026, 09:46 UTC

1 21360U 75052CE  26257.40760028 -.00000012  00000-0  63804-4 0  9999
2 21360  99.7879 317.6122 0077067 207.1003 164.1437 13.29445996713554

Track DELTA 1 DEB in real time with AllMySat

Download on the App Store